Weather History for Billings, MT

Change the Weather History Date:

Wednesday, July 30, 2014

  Actual Average Record
Temperature  
Mean Temperature 77 °F 74 °F  
Max Temperature 90 °F 89 °F 102 °F (2000)
Min Temperature 63 °F 60 °F 46 °F (1971)
Degree Days  
Heating Degree Days 0 0  
Month to date heating degree days 1 12  
Since 1 June heating degree days 90 108  
Since 1 July heating degree days 1 12  
Cooling Degree Days 12 9  
Month to date cooling degree days 291 247  
Year to date cooling degree days 326 349  
Since 1 June cooling degree days 310 332  
Growing Degree Days 26 (Base 50)    
Moisture  
Dew Point 46 °F    
Average Humidity 44    
Maximum Humidity 72    
Minimum Humidity 15    
Precipitation  
Precipitation 0.00 in 0.03 in 0.45 in (1998)
Month to date precipitation 0.34 1.28  
Year to date precipitation 9.92 9.26  
Snow  
Snow 0.00 in 0.00 in 0.00 in (2002)
Month to date snowfall 0.0 0.0  
Since 1 June snowfall T 0.0  
Since 1 July snowfall 0.0 0.0  
Snow Depth 0.00 in    
Sea Level Pressure  
Sea Level Pressure 30.10 in    
Wind  
Wind Speed 9 mph (South)    
Max Wind Speed 18 mph    
Max Gust Speed 23 mph    
Visibility 10 miles    
Events      
T = Trace of Precipitation, MM = Missing Value Source: NWS Daily Summary

Daily Weather History Graph

Daily Weather History Graph

Search for Another Location

Airport:

Trip Planner

Search our weather history database for the weather conditions in past years. The results will help you decide how hot, cold, wet, or windy it might be!

Date:

Astronomy

Jul. 30, 2014 Rise Set
Actual Time 5:54 AM MDT 8:45 PM MDT
Civil Twilight 5:20 AM MDT 9:20 PM MDT
Nautical Twilight 4:36 AM MDT 10:03 PM MDT
Astronomical Twilight 3:43 AM MDT 10:55 PM MDT
Moon 9:43 AM MDT (7/30) 10:14 PM MDT (7/30)
Length of Visible Light 15h 59m
Length of Day
14h 50m
Waxing Crescent, 13% of the Moon is Illuminated
Jul 30
Waxing Crescent
Aug 3
First Quarter
Aug 10
Full
Aug 17
Last Quarter
Aug 25
New

Hourly Weather History & Observations

Time (MDT) Temp. Dew Point Humidity Pressure Visibility Wind Dir Wind Speed Gust Speed Precip Events Conditions
12:53 AM 71.1 °F 54.0 °F 55% 30.11 in 10.0 mi WSW 13.8 mph - N/A   Clear
1:53 AM 69.1 °F 54.0 °F 58% 30.12 in 10.0 mi WSW 10.4 mph - N/A   Clear
2:53 AM 68.0 °F 54.0 °F 61% 30.12 in 10.0 mi WSW 11.5 mph - N/A   Clear
3:53 AM 66.0 °F 54.0 °F 65% 30.12 in 10.0 mi SW 11.5 mph - N/A   Clear
4:53 AM 64.0 °F 54.0 °F 70% 30.13 in 10.0 mi SW 10.4 mph - N/A   Partly Cloudy
5:53 AM 63.0 °F 53.1 °F 70% 30.14 in 10.0 mi SW 10.4 mph - N/A   Scattered Clouds
6:53 AM 63.0 °F 53.1 °F 70% 30.15 in 10.0 mi Calm Calm - N/A   Scattered Clouds
7:53 AM 64.9 °F 54.0 °F 68% 30.16 in 10.0 mi SW 11.5 mph - N/A   Scattered Clouds
8:53 AM 68.0 °F 54.0 °F 61% 30.16 in 10.0 mi SW 8.1 mph - N/A   Scattered Clouds
9:53 AM 73.0 °F 54.0 °F 51% 30.15 in 10.0 mi SW 6.9 mph - N/A   Scattered Clouds
10:53 AM 77.0 °F 53.6 °F 44% 30.25 in 10.0 mi SW 4.6 mph - N/A   Scattered Clouds
11:53 AM 81.0 °F 48.9 °F 33% 30.13 in 10.0 mi Calm Calm - N/A   Scattered Clouds
12:53 PM 84.9 °F 46.9 °F 27% 30.11 in 10.0 mi Variable 5.8 mph - N/A   Scattered Clouds
1:53 PM 87.1 °F 41.0 °F 20% 30.09 in 10.0 mi South 10.4 mph - N/A   Scattered Clouds
2:53 PM 88.0 °F 39.0 °F 18% 30.09 in 10.0 mi SE 15.0 mph 20.7 mph N/A   Scattered Clouds
3:53 PM 88.0 °F 39.0 °F 18% 30.07 in 10.0 mi SE 12.7 mph - N/A   Scattered Clouds
4:53 PM 89.1 °F 39.0 °F 17% 30.04 in 10.0 mi SE 15.0 mph - N/A   Scattered Clouds
5:53 PM 88.0 °F 37.0 °F 16% 30.04 in 10.0 mi SE 9.2 mph - N/A   Scattered Clouds
6:53 PM 88.0 °F 34.0 °F 15% 30.03 in 10.0 mi SE 10.4 mph - N/A   Scattered Clouds
7:53 PM 84.9 °F 35.1 °F 17% 30.04 in 10.0 mi East 10.4 mph - N/A   Mostly Cloudy
8:53 PM 82.0 °F 37.0 °F 20% 30.04 in 10.0 mi East 8.1 mph - N/A   Scattered Clouds
10:53 PM 77.0 °F 36.0 °F 23% 30.05 in 10.0 mi SE 5.8 mph - N/A   Partly Cloudy
11:53 PM 78.8 °F 35.6 °F 21% 30.14 in 10.0 mi SE 8.1 mph - N/A   Partly Cloudy